This is the latest recevied weather packets stored in our database for station/object WP3OF-2. If no packets are shown the sender has not sent any weather packets the latest 10 day(s).
| Time | Temp. | Humidity | Pressure | Rain* | Wind** | Luminosity | Snow |
|---|---|---|---|---|---|---|---|
| 1777917878 | 23.33° C | 83% | 1025.6 hPa | 0 mm | - | 918 W/m² | - |
| 1777917575 | 23.33° C | 83% | 1025.6 hPa | 0 mm | - | 544 W/m² | - |
| 1777917272 | 23.33° C | 82% | 1025.6 hPa | 0 mm | - | 870 W/m² | - |
| 1777916970 | 22.78° C | 82% | 1026 hPa | 0 mm | - | 218 W/m² | - |
| 1777916667 | 23.33° C | 80% | 1026 hPa | 0 mm | - | 288 W/m² | - |
| 1777916365 | 23.33° C | 80% | 1026 hPa | 0 mm | - | 422 W/m² | - |
| 1777916061 | 22.78° C | 81% | 1026 hPa | 0 mm | - | 980 W/m² | - |
| 1777915759 | 22.78° C | 81% | 1026 hPa | 0 mm | - | 509 W/m² | - |
| 1777915454 | 23.33° C | 80% | 1026 hPa | 0 mm | - | 550 W/m² | - |
| 1777915151 | 23.33° C | 79% | 1026 hPa | 0 mm | - | 866 W/m² | - |
| 1777914848 | 23.33° C | 78% | 1026 hPa | 0 mm | - | 906 W/m² | - |
| 1777914545 | 23.33° C | 80% | 1026 hPa | 0 mm | - | 824 W/m² | - |
| 1777914241 | 23.89° C | 79% | 1026.3 hPa | 0 mm | - | 825 W/m² | - |
| 1777913938 | 23.33° C | 78% | 1026 hPa | 0 mm | - | 845 W/m² | - |
| 1777913635 | 23.33° C | 77% | 1026.3 hPa | 0 mm | - | 389 W/m² | - |
| 1777913331 | 23.89° C | 76% | 1026.3 hPa | 0 mm | - | 849 W/m² | - |
| 1777913029 | 22.78° C | 77% | 1026.3 hPa | 0 mm | - | 824 W/m² | - |
| 1777912724 | 22.78° C | 76% | 1026.3 hPa | 0 mm | - | 822 W/m² | - |
| 1777912420 | 22.78° C | 75% | 1026.3 hPa | 0 mm | - | 835 W/m² | - |
| 1777912116 | 22.78° C | 76% | 1026.3 hPa | 0 mm | - | 812 W/m² | - |
| 1777911812 | 22.78° C | 76% | 1026.7 hPa | 0 mm | - | 806 W/m² | - |
| 1777911509 | 22.78° C | 77% | 1026.3 hPa | 0 mm | - | 815 W/m² | - |
| 1777911206 | 22.22° C | 80% | 1026.3 hPa | 0 mm | - | 877 W/m² | - |
| 1777910903 | 22.78° C | 81% | 1026.3 hPa | 0 mm | - | 479 W/m² | - |
| 1777910600 | 22.78° C | 80% | 1026.3 hPa | 0 mm | - | 1010 W/m² | - |
* Rain latest hour (hover to see other rain measurements)
** Current wind speed in m/s (hover to see current wind gust speed)